Overview Statistics Trail Chart Weather Telemetry Raw packets
 

This is the latest recevied weather packets stored in our database for station/object WY7ATH-2. If no packets are shown the sender has not sent any weather packets the latest 10 day(s).

<< 17 18 19 20 21 22 23 >>
Time Temp. Humidity Pressure Rain* Wind** Luminosity Snow
1788131432 22.22° C - - 3.81 mm 0 m/s - -
1788130234 20° C - - 3.3 mm 0 m/s - -
1788129040 20° C - - 3.3 mm 0 m/s - -
1788128443 18.89° C - - 3.3 mm 0 m/s - -
1788127846 18.89° C - - 3.3 mm 0 m/s - -
1788127249 18.89° C - - 3.3 mm 0 m/s - -
1788126649 20° C - - 2.54 mm 0 m/s - -
1788126052 18.89° C - - 2.54 mm 0 m/s - -
1788125455 18.89° C - - 2.54 mm 0 m/s - -
1788124858 18.89° C - - 2.54 mm 0 m/s - -
1788124261 18.89° C - - 2.54 mm 0 m/s - -
1788123063 18.33° C - - 3.05 mm 0 m/s - -
1788120675 20.56° C - - 3.05 mm 0 m/s - -
1788120078 20° C - - 3.05 mm 0 m/s - -
1788118284 20° C - - 5.59 mm 0 m/s - -
1788117686 20° C - - 5.59 mm 6.26 m/s, 359° - -
1788117089 20° C - - 5.59 mm 5.81 m/s, 264° - -
1788116493 20° C - - 5.59 mm 8.49 m/s, 359° - -
1788115892 20.56° C - - 12.19 mm 9.39 m/s, 231° - -
1788114101 21.11° C - - 12.19 mm 0 m/s - -
1788112306 21.67° C - - 15.24 mm 0 m/s - -
1788111709 21.67° C - - 15.24 mm 0 m/s - -
1788111112 21.67° C - - 15.24 mm 1.79 m/s, 359° - -
1788109918 22.78° C - - 15.24 mm 0 m/s - -
1788109321 22.78° C - - 15.24 mm 2.24 m/s, 359° - -

* Rain latest hour (hover to see other rain measurements)
** Current wind speed in m/s (hover to see current wind gust speed)